SL-14 DEB, 45290

Orbit data source: Space-Track

SL-14 DEB, 45290 is space debris in LEO originally from a launch on Thu, 15 Aug 1991 UTC launched from the Plesetsk Missile And Space Complex (PKMTR). Debris objects in space refer to the collection of defunct objects orbiting the Earth. Examples of debris include non-operational satellites, rocket bodies, and fragments generated from explosions, collisions, or faulty payload assembly.

Loading next visibility...
SL-14 DEB details
Identifier
45290, 1991-056AC
Orbit
LEO
Last TLE update10 hours ago
Origin
Flag of CISRosgidromet (CIS)
ManufacturerUnknown
MissionSpacecraft
Bus & MotorUnknown
MassUnknown
Launch date (UTC)
1991-08-15 (33 years ago)
Launch vehicleUnknown
Launch site
Plesetsk Missile And Space Complex (PKMTR)
Object type
Payload
Rocket body
Debris
Shape & HBRUnknown
Radar Cross SectionSmall (<0.1 m²)

Expand to show TLE details & history

TLE from 10 hours ago
0 SL-14 DEB
1 45290U 91056AC  24339.77264962  .00006068  00000-0  10739-1 0  9996
2 45290  82.6281 149.8527 0131443 283.7528  74.9006 13.39068202233442
Epoch: 2024-12-04T18:32Z
Definitive object data (Epoch: 2024-12-04T18:32:36.927Z)
Latitude0.00001°
Longitude157.63584°
Altitude1,091.153 km
Speed7.319 km/s
True Right ascension09h 59m 24s
True Declination0° 00' 00"
Sunlit
Object was in daylight at TLE epoch
Visualization TLE readout
Latitude-35.1563°
Longitude-17.46777°
Altitude1,087.051 km
Speed7.327 km/s
Apparent Right ascension19h 06m 21s
Apparent Declination-54° 48' 45"
Sunlit
Object is in daylight
Visualization observer readout
Local Sidereal Time02:33:10
Azimuth227.53° WSW
Elevation-43.461°
Doppler factor1
Orbital elements
Apogee altitude1,208.388 km
Perigee altitude1,011.537 km
Semi-major axis7,488.099 km
Eccentricity0.0131443
Inclination82.6281°
RAAN149.8527°
Arg. of periapsis283.7528°
True anomaly76.36092°
Mean anomaly74.9006°
Eccentric anomaly75.63015°
Mean motion3.34954 °/min
BSTAR0.010739
Orbital period107.48 mins
Loading maneuver chart data...
Loading historical data...
Loading historical data...
Loading historical data...
Loading historical data...
Loading historical data...
Loading historical data...
Loading historical data...

SL-14 DEB Visibility forecast

Observer location: undefined°, undefined

Span
Click to sort rows by Start time (UTC) header in descending order
Start Az.
Max El. time (UTC)
Max El. Az.
Max El.
End time (UTC)
End Az.
9 mins2024-12-05 10:48:44.325Z122.133° SE2024-12-05 10:52:44.325Z85.828° E18.747°2024-12-05 10:57:44.325Z39.861° NE
12 mins2024-12-05 12:35:44.325Z199.442° SSW2024-12-05 12:40:44.325Z277.964° WNW43.086°2024-12-05 12:47:44.325Z2.612° NNE
9 mins2024-12-05 22:03:44.325Z27.373° NE2024-12-05 22:07:44.325Z68.351° E22.844°2024-12-05 22:12:44.325Z117.366° SE
12 mins2024-12-05 23:50:44.325Z342.95° N2024-12-05 23:56:44.325Z265.869° W40.999°2024-12-06 00:02:44.325Z192.329° SSW
|